Weather History for Stuart, FL

Change the Weather History Date:

Wednesday, August 21, 2013

  Actual Average Record
Temperature  
Mean Temperature 83 °F -  
Max Temperature 89 °F 90 °F 99 °F (1993)
Min Temperature 77 °F 74 °F 33 °F (2001)
Cooling Degree Days 18    
Growing Degree Days 33 (Base 50)    
Moisture  
Dew Point 76 °F    
Average Humidity 84    
Maximum Humidity 94    
Minimum Humidity 66    
Precipitation  
Precipitation 0.05 in - - ()
Sea Level Pressure  
Sea Level Pressure 30.08 in    
Wind  
Wind Speed 9 mph (East)    
Max Wind Speed 17 mph    
Max Gust Speed 23 mph    
Visibility 9 miles    
Events Rain , Thunderstorm    
Averages and records for this station are not official NWS values.
T = Trace of Precipitation, MM = Missing Value Source: NWS Daily Summary

Daily Weather History Graph

Daily Weather History Graph

Search for Another Location

Airport:

Trip Planner

Search our weather history database for the weather conditions in past years. The results will help you decide how hot, cold, wet, or windy it might be!

Date:

Astronomy

Aug. 21, 2013 Rise Set
Actual Time 6:55 AM EDT 7:52 PM EDT
Civil Twilight 6:31 AM EDT 8:16 PM EDT
Nautical Twilight 6:02 AM EDT 8:44 PM EDT
Astronomical Twilight 5:33 AM EDT 9:13 PM EDT
Moon 8:11 PM EDT (8/21) 7:24 AM EDT (8/21)
Length of Visible Light 13h 45m
Length of Day
12h 57m
Full, 100% of the Moon is Illuminated
Aug 21
Full
Aug 28
Last Quarter
Sep 5
New
Sep 12
First Quarter
Sep 19
Full

Hourly Weather History & Observations

Time (EDT) Temp. Heat Index Dew Point Humidity Pressure Visibility Wind Dir Wind Speed Gust Speed Precip Events Conditions
12:15 AM 77.0 °F - 75.2 °F 94% 30.10 in 7.0 mi ESE 8.1 mph - N/A Thunderstorm Thunderstorm
12:35 AM 77.0 °F - 73.4 °F 89% 30.10 in 7.0 mi ENE 10.4 mph - N/A Thunderstorm Thunderstorm
12:55 AM 77.0 °F - 73.4 °F 89% 30.09 in 10.0 mi East 9.2 mph - N/A Thunderstorm Thunderstorm
1:15 AM 78.8 °F - 73.4 °F 83% 30.07 in 10.0 mi East 8.1 mph - N/A Thunderstorm Thunderstorm
1:35 AM 80.6 °F 87.1 °F 77.0 °F 89% 30.08 in 10.0 mi ENE 9.2 mph - N/A Thunderstorm Clear
1:55 AM 80.6 °F 87.1 °F 77.0 °F 89% 30.08 in 10.0 mi East 6.9 mph - 0.01 in Thunderstorm Thunderstorm
2:15 AM 80.6 °F 87.1 °F 77.0 °F 89% 30.09 in 10.0 mi ENE 12.7 mph 17.3 mph N/A Thunderstorm Clear
2:35 AM 80.6 °F 86.2 °F 75.2 °F 84% 30.08 in 10.0 mi East 8.1 mph - N/A Thunderstorm Scattered Clouds
2:55 AM 80.6 °F 86.2 °F 75.2 °F 84% 30.08 in 10.0 mi ENE 8.1 mph - N/A Thunderstorm Clear
3:15 AM 80.6 °F 87.1 °F 77.0 °F 89% 30.07 in 10.0 mi ENE 8.1 mph - N/A   Clear
3:35 AM 80.6 °F 87.1 °F 77.0 °F 89% 30.06 in 10.0 mi East 8.1 mph - N/A Thunderstorm Thunderstorm
3:55 AM 80.6 °F 87.1 °F 77.0 °F 89% 30.06 in 10.0 mi East 8.1 mph - N/A Thunderstorm Thunderstorm
4:15 AM 78.8 °F - 75.2 °F 89% 30.06 in 10.0 mi ESE 5.8 mph - N/A Thunderstorm Scattered Clouds
4:35 AM 78.8 °F - 75.2 °F 89% 30.06 in 7.0 mi East 3.5 mph - N/A Thunderstorm Thunderstorm
4:55 AM 78.8 °F - 77.0 °F 94% 30.06 in 7.0 mi ENE 4.6 mph - N/A Thunderstorm Mostly Cloudy
5:15 AM 80.6 °F 87.1 °F 77.0 °F 89% 30.05 in 10.0 mi ENE 11.5 mph 17.3 mph N/A   Mostly Cloudy
5:35 AM 80.6 °F 86.2 °F 75.2 °F 84% 30.05 in 10.0 mi East 10.4 mph - N/A Thunderstorm Scattered Clouds
5:55 AM 80.6 °F 85.4 °F 73.4 °F 79% 30.06 in 10.0 mi East 6.9 mph - N/A   Clear
6:15 AM 78.8 °F - 75.2 °F 89% 30.06 in 10.0 mi East 4.6 mph - N/A   Clear
6:47 AM 80.6 °F 86.2 °F 75.2 °F 84% 30.07 in 7.0 mi East 8.1 mph - N/A Thunderstorm Mostly Cloudy
7:47 AM 80.6 °F 87.1 °F 77.0 °F 89% 30.07 in 7.0 mi East 9.2 mph - N/A   Mostly Cloudy
8:50 AM 84.2 °F 94.1 °F 77.0 °F 79% 30.08 in 7.0 mi East 9.2 mph - N/A   Mostly Cloudy
9:47 AM 86.0 °F 96.9 °F 77.0 °F 74% 30.10 in 7.0 mi ESE 13.8 mph - N/A   Mostly Cloudy
10:47 AM 87.8 °F 99.7 °F 77.0 °F 70% 30.11 in 7.0 mi ESE 13.8 mph - N/A   Mostly Cloudy
11:47 AM 89.6 °F 102.2 °F 77.0 °F 66% 30.11 in 7.0 mi East 11.5 mph 20.7 mph N/A   Mostly Cloudy
12:47 PM 84.2 °F 94.1 °F 77.0 °F 79% 30.12 in 7.0 mi ESE 13.8 mph - N/A Rain , Thunderstorm Light Rain
1:47 PM 89.6 °F 102.2 °F 77.0 °F 66% 30.10 in 7.0 mi ESE 17.3 mph - N/A   Mostly Cloudy
2:47 PM 89.6 °F 102.2 °F 77.0 °F 66% 30.07 in 7.0 mi ESE 13.8 mph 23.0 mph N/A   Mostly Cloudy
3:47 PM 89.6 °F 102.2 °F 77.0 °F 66% 30.05 in 7.0 mi ESE 17.3 mph 20.7 mph N/A   Mostly Cloudy
4:47 PM 86.0 °F 96.9 °F 77.0 °F 74% 30.04 in 7.0 mi ESE 16.1 mph 21.9 mph N/A   Mostly Cloudy
5:47 PM 84.2 °F 94.1 °F 77.0 °F 79% 30.04 in 7.0 mi ESE 11.5 mph 18.4 mph N/A   Mostly Cloudy
6:47 PM 84.2 °F 94.1 °F 77.0 °F 79% 30.05 in 7.0 mi ESE 12.7 mph 18.4 mph N/A   Mostly Cloudy
8:15 PM 82.4 °F 90.9 °F 77.0 °F 84% 30.06 in 10.0 mi ESE 8.1 mph - N/A Thunderstorm Clear
8:35 PM 82.4 °F 89.5 °F 75.2 °F 79% 30.07 in 10.0 mi SSE 5.8 mph - N/A   Scattered Clouds
8:55 PM 80.6 °F 87.1 °F 77.0 °F 89% 30.08 in 10.0 mi SSE 3.5 mph - N/A Thunderstorm Thunderstorm
9:15 PM 80.6 °F 87.1 °F 77.0 °F 89% 30.08 in 10.0 mi SE 3.5 mph - N/A Thunderstorm Thunderstorm
9:35 PM 80.6 °F 87.1 °F 77.0 °F 89% 30.09 in 10.0 mi Calm Calm - N/A Thunderstorm Thunderstorm
9:55 PM 80.6 °F 87.1 °F 77.0 °F 89% 30.09 in 10.0 mi East 10.4 mph - N/A Thunderstorm Thunderstorm
10:15 PM 78.8 °F - 71.6 °F 78% 30.10 in 3.0 mi South 8.1 mph - 0.01 in Thunderstorm Thunderstorm
10:35 PM 77.0 °F - 73.4 °F 89% 30.10 in 10.0 mi East 4.6 mph - 0.04 in Thunderstorm Thunderstorm
10:55 PM 78.8 °F - 75.2 °F 89% 30.11 in 10.0 mi ENE 6.9 mph - 0.04 in Thunderstorm Thunderstorm
11:15 PM 77.0 °F - 71.6 °F 83% 30.10 in 10.0 mi ENE 5.8 mph - N/A   Mostly Cloudy
11:35 PM 77.0 °F - 73.4 °F 89% 30.10 in 10.0 mi Calm Calm - N/A Thunderstorm Clear
11:55 PM 78.8 °F - 75.2 °F 89% 30.10 in 10.0 mi Calm Calm - N/A   Clear